This demonstration page uses our WeatherBlox Daily Observations layout. Learn more.

Left ArrowRight Arrow

41.12389, -100.76542

Hourly Observations for March 18, 2019

Temp ( °F °C ) Dew Point ( °F °C ) Humidity (%) Winds ( mph kmh ) Pressure ( in mb ) Visibility ( mi km ) Precip ( " mm )
12:53 am 00:53 Clear 28 -2.2 22 -5.6 78 78 ENE 8 13 30.45 1031 10 16 0.00 0.00
1:53 am 01:53 Clear 27 -2.8 22 -5.6 81 81 Calm 30.46 1032 10 16 0.00 0.00
2:53 am 02:53 Clear 25 -3.9 20 -6.7 81 81 Calm 30.46 1031 10 16 0.00 0.00
3:53 am 03:53 Clear 23 -5 20 -6.7 88 88 NNE 5 7 30.46 1032 10 16 0.00 0.00
4:53 am 04:53 Clear 23 -5 19 -7.2 85 85 Calm 30.44 1031 10 16 0.00 0.00
5:53 am 05:53 Clear 23 -5 20 -6.7 88 88 Calm 30.43 1031 10 16 0.00 0.00
6:53 am 06:53 Clear 23 -5 20 -6.7 88 88 Calm 30.46 1031 10 16 0.00 0.00
7:53 am 07:53 Sunny 22 -5.6 19 -7.2 89 89 NE 3 6 30.48 1032 10 16 0.00 0.00
8:53 am 08:53 Sunny 26 -3.3 22 -5.6 84 84 Calm 30.47 1032 10 16 0.00 0.00
9:53 am 09:53 Sunny 30 -1.1 24 -4.4 79 79 Calm 30.48 1032 10 16 0.00 0.00
10:53 am 10:53 Sunny 34 1.1 22 -5.6 61 61 VRB 3 6 30.47 1032 10 16 0.00 0.00
11:53 am 11:53 Mostly Sunny 39 3.9 21 -6.1 48 48 SW 6 9 30.44 1031 10 16 0.00 0.00
12:53 pm 12:53 Mostly Cloudy 42 5.6 24 -4.4 49 49 SW 13 20 30.41 1030 10 16 0.00 0.00
1:53 pm 13:53 Mostly Cloudy 44 6.7 24 -4.4 45 45 SSW 9 15 30.39 1029 10 16 0.00 0.00
2:53 pm 14:53 Mostly Cloudy 45 7.2 22 -5.6 40 40 SW 10 17 30.35 1028 10 16 0.00 0.00
3:53 pm 15:53 Cloudy 47 8.3 23 -5 39 39 SSW 9 15 30.32 1027 10 16 0.00 0.00
4:53 pm 16:53 Mostly Cloudy 46 7.8 23 -5 40 40 S 6 9 30.29 1026 10 16 0.00 0.00
5:53 pm 17:53 Cloudy 46 7.8 24 -4.4 42 42 SSE 9 15 30.28 1025 10 16 0.00 0.00
6:53 pm 18:53 Cloudy 44 6.7 25 -3.9 47 47 S 8 13 30.30 1026 10 16 0.00 0.00
7:53 pm 19:53 Cloudy 42 5.6 26 -3.3 53 53 SSE 8 13 30.28 1026 10 16 0.00 0.00
8:53 pm 20:53 Cloudy 38 3.3 27 -2.8 65 65 ESE 7 11 30.28 1025 10 16 0.00 0.00
9:53 pm 21:53 Partly Cloudy 34 1.1 27 -2.8 76 76 SE 7 11 30.27 1025 10 16 0.00 0.00
10:53 pm 22:53 Mostly Cloudy 37 2.8 29 -1.7 73 73 ESE 9 15 30.26 1025 10 16 0.00 0.00
11:53 pm 23:53 Cloudy 36 2.2 30 -1.1 79 79 SE 7 11 30.25 1024 10 16 0.00 0.00

Powered by AerisWeather